Flag for United Kingdom Weather past 2 weeks in Cardiff, Wales, United Kingdom

Now
59 °F

Partly sunny.


Feels Like: 58 °F
Forecast: 45 / 61 °F
Wind: 8 mph from West

Location: Wales Airport

Current Time: May 24, 2015 at 4:43:11 PM

Latest Report: May 24, 2015 at 4:20 PM


Visibility: N/A

Pressure: 30.12 "Hg

Humidity: 94%

Dew point: 57 °F

Location of CardiffLocation

Historic Weather in Cardiff — Graph

°F

Cardiff temperature yesterday

Maximum temperature yesterday: 64 °F (at 4:20 PM)
Minimum temperature yesterday: 50 °F (at 11:20 PM)
Average temperature yesterday: 56 °F

Past Weeks' High & Low Weather Summary

 TemperatureHumidityPressure
High64 °F (May 23, 4:20 PM)100% (May 10, 1:50 AM)30.39 "Hg (May 10, 1:50 AM)
Low39 °F (May 20, 2:50 AM)27% (May 13, 3:50 PM)29.56 "Hg (May 18, 10:50 AM)
Average52 °F83%30.10 "Hg
* Reported May 9 3:20 PM — May 24 3:20 PM, Cardiff, Weather by CustomWeather, © 2015

Note: Actual official high and low records may vary slightly from our data, if they occured in-between our weather recording intervals... More about our weather records

Advertising

Cardiff weather history for previous 24 hours

 ConditionsComfort  
Time TempWeatherWind HumidityBarometerVisibility
3:20 PM
Sun, May 24
55 °FFog.12 mph100%30.12 "Hg2 mi
2:50 PM57 °FFog.13 mph94%30.12 "Hg3 mi
2:20 PM55 °FFog.12 mph100%30.12 "Hg1 mi
1:50 PM55 °FFog.10 mph100%30.12 "Hg2 mi
1:20 PM55 °FFog.12 mph100%30.12 "Hg1 mi
12:50 PM55 °FFog.13 mph100%30.12 "Hg1 mi
12:20 PM55 °FFog.13 mph100%30.12 "Hg0 mi
11:50 AM55 °FFog.14 mph100%30.12 "Hg1 mi
11:20 AM55 °FFog.12 mph100%30.12 "Hg1 mi
10:50 AM55 °FFog.13 mph94%30.12 "Hg1 mi
10:20 AM54 °FFog.13 mph100%30.12 "Hg1 mi
9:50 AM54 °FFog.13 mph100%30.12 "Hg0 mi
9:20 AM54 °FFog.14 mph100%30.12 "Hg0 mi
8:50 AM54 °FFog.12 mph100%30.12 "Hg1 mi
8:20 AM54 °FFog.13 mph100%30.12 "Hg1 mi
7:50 AM54 °FFog.10 mph100%30.12 "Hg1 mi
7:20 AM54 °FFog.12 mph100%30.15 "Hg0 mi
6:50 AM54 °FFog.9 mph94%30.15 "Hg2 mi
6:20 AM54 °FFog.8 mph94%30.12 "Hg3 mi
5:50 AM54 °FLow clouds.9 mph94%30.15 "HgN/A
5:20 AM52 °FLow clouds.9 mph100%30.15 "HgN/A
4:50 AM52 °FLow clouds.8 mph100%30.15 "HgN/A
4:20 AM52 °FLow clouds.8 mph94%30.15 "HgN/A
3:50 AM50 °FClear.8 mph100%30.15 "HgN/A
3:20 AM50 °FPassing clouds.8 mph100%30.15 "HgN/A
2:50 AM50 °FPassing clouds.8 mph94%30.18 "HgN/A
2:20 AM50 °FCool.6 mph94%30.18 "HgN/A
1:50 AM50 °FCool.8 mph94%30.18 "HgN/A
1:20 AM50 °FCool.8 mph94%30.18 "HgN/A
12:50 AM50 °FClear.10 mph94%30.18 "Hg10 mi
12:20 AM50 °FCool.9 mph94%30.21 "HgN/A
11:50 PM
Sat, May 23
50 °FClear.10 mph94%30.21 "Hg10 mi
11:20 PM50 °FClear.10 mph94%30.21 "Hg10 mi
10:50 PM52 °FCool.13 mph88%30.21 "HgN/A
10:20 PM52 °FCool.9 mph88%30.21 "HgN/A
9:50 PM52 °FSunny.12 mph94%30.21 "Hg10 mi
9:20 PM52 °FSunny.12 mph94%30.21 "Hg10 mi
8:50 PM54 °FSunny.12 mph88%30.21 "Hg10 mi
8:20 PM55 °FSunny.13 mph82%30.21 "Hg10 mi
7:50 PM55 °FSunny.10 mph82%30.21 "Hg10 mi
7:20 PM57 °FSunny.12 mph82%30.21 "Hg10 mi
6:50 PM57 °FSunny.13 mph82%30.21 "Hg10 mi
6:20 PM59 °FPassing clouds.13 mph82%30.24 "HgN/A
5:50 PM61 °FPassing clouds.12 mph77%30.24 "HgN/A
5:20 PM63 °FPassing clouds.10 mph73%30.24 "HgN/A
4:50 PM61 °FPassing clouds.9 mph77%30.24 "HgN/A
4:20 PM64 °FPassing clouds.9 mph68%30.24 "HgN/A
Weather by CustomWeather, © 2015

See weather overviewHow to use our weather pages